Regional Weather Roundup
Issued by NWS Sterling, VA

Home | Current Version | Previous Version | Graphics & Text | Print | Product List | Glossary On
Versions: 1 2 3 4 5 6 7 8 9 10 11 12 13 14 15 16 17 18 19 20 21 22 23 24 25 26 27 28
000
ASUS41 KLWX 260111
RWRLWX

REGIONAL WEATHER ROUNDUP
NATIONAL WEATHER SERVICE BALTIMORE MD/WASHINGTON DC
900 PM EDT MON SEP 25 2017

Note: "FAIR" indicates few or no clouds below 12,000 feet
with no significant weather and/or obstructions to visibility.
 TC=TEMPERATURE CELSIUS

 * =Non NWS site. Station does not report precipitation (e.g. rain,
    snow, etc.), thunder, or fog.

DCZ001-MDZ009-015-VAZ040>042-051-053>054-260200-
WASHINGTON METRO

CITY           SKY/WX    TMP DP  RH WIND       PRES   REMARKS
WASHINGTON NAT MOCLDY    80  70  71 SE7       29.99S
DULLES         MOCLDY    76  68  76 CALM      30.00R
ANDREWS AFB    CLEAR     75  67  76 SE6       29.99R
FT BELVOIR     PTCLDY    72  68  88 CALM      29.99R
QUANTICO       PTCLDY    79  72  79 CALM      30.00R
COLLEGE PARK*  PTCLDY    73  69  89 CALM      29.99S
LEESBURG*      PTCLDY    79  70  73 CALM      30.01S
MANASSAS*      CLOUDY    73  69  87 CALM      30.00R
GAITHERSBURG*  PTCLDY    71  68  90 CALM      30.02S

$$

MDZ006>007-011-014-260200-
BALTIMORE METRO

CITY           SKY/WX    TMP DP  RH WIND       PRES   REMARKS
BWI AIRPORT    CLOUDY    77  68  73 E7        29.99R
MD SCIENCE CTR   N/A     82  69  64 MISG      30.00R
MARTIN STATE   PTCLDY    79  72  78 E7        30.01
ANNAPOLIS      CLEAR     80  72  76 E7        29.99S
FORT MEADE*    PTCLDY    70  68  94 CALM      30.01S

$$

MDZ012-015-019>023-260200-
MARYLAND EASTERN SHORE

CITY           SKY/WX    TMP DP  RH WIND       PRES   REMARKS
OCEAN CITY     CLOUDY    68  68 100 E8        30.01R
SALISBURY      CLOUDY    70  69  97 E6        30.01R
CAMBRIDGE*     CLEAR     72  66  83 NE3       30.00R
EASTON*        CLEAR     73  64  73 E5        30.04R

$$

MDZ017>025-260200-
SOUTHERN MARYLAND

CITY           SKY/WX    TMP DP  RH WIND       PRES   REMARKS
PATUXENT RIVER MOCLDY    75  65  70 E9        29.99R
ST INIGOES     NOT AVBL
LEONARDTOWN*   CLEAR     72  64  78 E3        30.01R

$$

MDZ003>005-260200-
NORTH CENTRAL MARYLAND

CITY           SKY/WX    TMP DP  RH WIND       PRES   REMARKS
FREDERICK*     NOT AVBL
HAGERSTOWN APT PTCLDY    81  68  64 E5        30.02R
WESTMINSTER*   MOCLDY    77  68  73 CALM      30.03S

$$

MDZ501>502-260200-
WESTERN MARYLAND

CITY           SKY/WX    TMP DP  RH WIND       PRES   REMARKS
OAKLAND*       CLEAR     68  61  77 E6        30.12R
CUMBERLAND*    PTCLDY    77  64  65 CALM      30.07R

$$

VAZ025>031-260200-
SHENANDOAH VALLEY

CITY           SKY/WX    TMP DP  RH WIND       PRES   REMARKS
WINCHESTER*    MOCLDY    70  64  83 CALM      30.02S
FRONT ROYAL*   PTCLDY    72  68  88 CALM      30.01R
LURAY*         CLOUDY    73  68  83 CALM      30.02S
NEW MARKET*    MOCLDY    70  65  83 CALM      30.02R
STAUNTON*      CLOUDY    72  65  80 CALM      30.05S
WAYNESBORO*    CLOUDY    74  67  79 N7        30.04S

$$

WVZ021-048>050-054>055-260200-
EASTERN WEST VIRGINIA PANHANDLE

CITY           SKY/WX    TMP DP  RH WIND       PRES   REMARKS
MARTINSBURG    PTCLDY    74  68  81 CALM      30.01R
PETERSBURG*    MOCLDY    73  69  86 W5        30.03S

$$

VAZ036>039-050-260200-
CENTRAL FOOTHILLS

CITY           SKY/WX    TMP DP  RH WIND       PRES   REMARKS
CHARLOTTESVILL PTCLDY    76  68  76 N3        30.00R
CULPEPER*      CLOUDY    75  68  79 N3        30.00S
ORANGE*        CLOUDY    72  68  88 CALM      30.00R
GORDONSVILLE*  CLOUDY    71  70  98 CALM      30.00R
WARRENTON*     CLOUDY    70  63  79 CALM      29.99S

$$

VAZ055>057-260200-
NORTH AND CENTRAL PIEDMONT

CITY           SKY/WX    TMP DP  RH WIND       PRES   REMARKS
FREDERICKSBRG* MOCLDY    79  68  70 NE6       29.98R
STAFFORD*      CLOUDY    74  69  81 E5        30.03R

$$

NCZ024-NYZ072-PAZ021-071-VAZ022-071-260200-
OTHER REGIONAL OBSERVATIONS

CITY           SKY/WX    TMP DP  RH WIND       PRES   REMARKS
NEW YORK CITY  CLEAR     73  63  70 S6        30.08
PHILADELPHIA   CLOUDY    75  65  70 SE5       30.02S
PITTSBURGH     MOCLDY    77  64  64 CALM      30.03S
ROANOKE        PTCLDY    76  65  68 E3        30.03R
RICHMOND       PTCLDY    73  68  84 E6        29.98R
RALEIGH        MOCLDY    74  68  81 NE9       29.95R

$$

ANZ530>537-260200-
MARINE OBSERVATIONS

STATION/POSITION TIME  TEMP    WIND        PRES
                       AIR SEA DIR/SP/G
                 (UTC) (F)     (DEG/KT/KT) (MB)
THOMAS PT LIGHT  0100   77 78  110/ 12/ 13   N/A
BALT KEY BRIDGE  0048   80     120/ 13/ 14 1015.5R
COVE POINT       0048   76     110/  9/ 10 1016.2R
LEWISETTA        0048   77 79  100/ 14/ 15 1015.3R
SOLOMONS ISLAND  0048           80/ 10/ 12   N/A
PINEY POINT      0048           70/  2/  3   N/A

$$





USA.gov is the U.S. government's official web portal to all federal, state and local government web resources and services.